Location: Newark
(48.1236°N, 0.7169°W)
Time: 23:27:22
(UTC+00:00)

Envisat - Pass Details

Date: 28 November 2019
Orbit: 764 x 766 km, 98.1° (Epoch: 14 December)

Event Time Altitude Azimuth Distance (km) Brightness Sun altitude
Rises 05:25:08 0° 31° (NNE) 3,242 6.5 -19.8°
Reaches altitude 10° 05:28:52 10° 59° (ENE) 2,309 6.2 -19.2°
Maximum altitude 05:31:08 13° 86° (E) 2,109 6.3 -18.8°
Drops below altitude 10° 05:33:23 10° 113° (ESE) 2,301 6.7 -18.5°
Sets 05:37:04 0° 141° (SE) 3,220 7.1 -17.9°
